This is the latest recevied weather packets stored in our database for station/object BARLOW-WX. If no packets are shown the sender has not sent any weather packets the latest 10 day(s).
| Time | Temp. | Humidity | Pressure | Rain* | Wind** | Luminosity | Snow |
|---|---|---|---|---|---|---|---|
| 1777200377 | 7.22° C | 89% | 990.8 hPa | 0 mm | - | - | - |
| 1777199493 | 7.22° C | 94% | 990.8 hPa | 0 mm | - | - | - |
| 1777198578 | 7.22° C | 94% | 990.8 hPa | 0 mm | - | - | - |
| 1777197706 | 7.22° C | 94% | 990.8 hPa | 0 mm | - | - | - |
| 1777196778 | 7.22° C | 91% | 990 hPa | 0 mm | - | - | - |
| 1777195895 | 7.22° C | 94% | 990.2 hPa | 0 mm | - | - | - |
| 1777194978 | 7.22° C | 94% | 990.2 hPa | 0 mm | - | - | - |
| 1777194100 | 7.22° C | 94% | 990.2 hPa | 0 mm | - | - | - |
| 1777193178 | 7.22° C | 90% | 988.9 hPa | 0 mm | - | - | - |
| 1777192294 | 7.22° C | 92% | 988.9 hPa | 0 mm | - | - | - |
| 1777191687 | 6.67° C | 92% | 989 hPa | 0 mm | - | - | - |
| 1777190499 | 6.67° C | 92% | 989 hPa | 0 mm | - | - | - |
| 1777189578 | 6.11° C | 87% | 987.9 hPa | 0 mm | - | - | - |
| 1777188694 | 6.11° C | 87% | 987.9 hPa | 0 mm | - | - | - |
| 1777187778 | 5.56° C | 87% | 987.8 hPa | 0 mm | - | - | - |
| 1777186899 | 5.56° C | 87% | 987.8 hPa | 0 mm | - | - | - |
| 1777185978 | 6.11° C | 84% | 988.4 hPa | 0 mm | - | - | - |
| 1777185092 | 6.11° C | 85% | 987.8 hPa | 0 mm | - | - | - |
| 1777184176 | 6.11° C | 85% | 987.8 hPa | 0 mm | - | - | - |
| 1777183310 | 6.67° C | 85% | 987.8 hPa | 0 mm | - | - | - |
| 1777182377 | 6.67° C | 85% | 988.9 hPa | 0 mm | - | - | - |
| 1777181488 | 6.67° C | 88% | 988.9 hPa | 0 mm | - | - | - |
| 1777180576 | 7.78° C | 88% | 989 hPa | 0 mm | - | - | - |
| 1777179700 | 7.78° C | 88% | 989 hPa | 0 mm | - | - | - |
| 1777178777 | 7.78° C | 86% | 988.6 hPa | 0 mm | - | - | - |
* Rain latest hour (hover to see other rain measurements)
** Current wind speed in m/s (hover to see current wind gust speed)